QPF
0.02 0.03 0.03 0.02 0.03 0.04 0.06 0.09 0.08 0.06 0.06 0.05 0.03 0.05 0.06 0.07 0.08 0.08 0.08 0.10 0.08 0.09 0.10 0.11 0.10 0.08 0.07 0.07 0.06 0.05 0.04 0.04 0.04 0.03 0.02 0.02 0.01 0.01 0.02 0.02 0.02 0.01 0.01
0.03 0.02 0.02 0.02 0.02 0.04 0.06 0.10 0.07 0.04 0.04 0.04 0.04 0.06 0.08 0.08 0.09 0.11 0.11 0.11 0.10 0.10 0.13 0.13 0.12 0.10 0.09 0.08 0.07 0.06 0.05 0.05 0.05 0.04 0.04 0.03 0.02 0.02 0.02 0.02 0.02 0.01 0.01
0.06 0.04 0.02 0.02 0.03 0.04 0.03 0.03 0.03 0.03 0.04 0.04 0.05 0.05 0.06 0.08 0.12 0.14 0.13 0.13 0.15 0.15 0.15 0.14 0.13 0.13 0.12 0.11 0.09 0.07 0.06 0.06 0.06 0.05 0.04 0.04 0.03 0.03 0.02 0.02 0.02 0.01 0.01
0.07 0.05 0.03 0.02 0.03 0.03 0.03 0.03 0.03 0.03 0.03 0.03 0.03 0.03 0.04 0.06 0.09 0.12 0.16 0.17 0.19 0.18 0.17 0.15 0.15 0.13 0.12 0.12 0.10 0.09 0.08 0.08 0.07 0.07 0.06 0.05 0.04 0.03 0.02 0.02 0.02 0.02 0.02
0.08 0.06 0.04 0.04 0.06 0.05 0.04 0.03 0.03 0.03 0.03 0.03 0.02 0.03 0.04 0.06 0.09 0.11 0.13 0.14 0.12 0.15 0.14 0.12 0.14 0.16 0.14 0.11 0.11 0.10 0.10 0.09 0.09 0.08 0.08 0.07 0.06 0.04 0.04 0.03 0.03 0.03 0.03
0.11 0.08 0.06 0.06 0.05 0.05 0.05 0.04 0.04 0.04 0.03 0.03 0.03 0.03 0.03 0.03 0.05 0.07 0.08 0.09 0.09 0.08 0.07 0.07 0.09 0.11 0.12 0.12 0.12 0.11 0.10 0.10 0.09 0.09 0.09 0.08 0.07 0.06 0.05 0.05 0.04 0.04 0.05
0.14 0.10 0.09 0.08 0.07 0.06 0.05 0.04 0.04 0.03 0.03 0.03 0.02 0.03 0.02 0.02 0.02 0.03 0.04 0.06 0.07 0.07 0.07 0.08 0.10 0.10 0.10 0.10 0.09 0.10 0.09 0.09 0.09 0.09 0.10 0.10 0.09 0.08 0.08 0.07 0.06 0.06 0.06
0.18 0.15 0.12 0.09 0.07 0.05 0.04 0.03 0.03 0.03 0.03 0.02 0.02 0.02 0.02 0.02 0.01 0.02 0.03 0.05 0.06 0.07 0.06 0.06 0.07 0.07 0.07 0.06 0.06 0.06 0.07 0.08 0.09 0.09 0.09 0.09 0.09 0.09 0.09 0.10 0.10 0.10 0.09
0.21 0.18 0.14 0.10 0.07 0.05 0.03 0.02 0.02 0.02 0.02 0.02 0.02 0.02 0.02 0.02 0.02 0.01 0.01 0.01 0.02 0.02 0.02 0.02 0.03 0.03 0.03 0.04 0.05 0.06 0.07 0.08 0.08 0.08 0.07 0.07 0.07 0.07 0.08 0.09 0.11 0.12 0.13
0.20 0.15 0.12 0.09 0.05 0.04 0.03 0.02 0.01 0.01 0.02 0.02 0.02 0.02 0.03 0.02 0.02 0.01 0.01 0.01 0.01 0.01 0.01 0.01 0.01 0.01 0.02 0.02 0.03 0.04 0.05 0.05 0.05 0.05 0.06 0.06 0.05 0.05 0.06 0.07 0.09 0.11 0.13
0.12 0.10 0.09 0.07 0.05 0.05 0.03 0.02 0.01 0.01 0.01 0.01 0.01 0.01 0.01 0.01 0.01 0.01 0.01 0.01 0.02 0.02 0.01 0.01 0.01 0.01 0.01 0.02 0.02 0.03 0.04 0.04 0.05 0.06 0.08 0.09 0.08 0.06 0.05 0.04 0.05 0.06 0.08
0.13 0.11 0.10 0.09 0.07 0.06 0.04 0.03 0.03 0.03 0.03 0.02 0.02 0.02 0.01 0.01 0.01 0.01 0.01 0.01 0.01 0.02 0.02 0.01 0.01 0.00 0.01 0.01 0.01 0.02 0.02 0.02 0.03 0.03 0.03 0.03 0.03 0.03 0.03 0.04 0.04 0.04 0.04
0.11 0.13 0.11 0.08 0.05 0.03 0.04 0.04 0.04 0.04 0.02 0.02 0.01 0.01 0.01 0.01 0.01 0.01 0.01 0.01 0.01 0.01 0.01 0.00 0.00 0.00 0.00 0.01 0.01 0.02 0.01 0.01 0.01 0.01 0.01 0.01 0.01 0.01 0.01 0.02 0.03 0.03 0.03
0.07 0.07 0.05 0.04 0.04 0.04 0.03 0.02 0.02 0.01 0.01 0.01 0.00 0.00 0.00 0.00 0.01 0.01 0.01 0.01 0.01 0.01 0.01 0.01 0.00 0.01 0.01 0.01 0.01 0.02 0.01 0.01 0.01 0.01 0.01 0.00 0.00 0.00 0.00 0.01 0.01 0.01 0.02
0.04 0.02 0.02 0.01 0.02 0.02 0.01 0.01 0.01 0.01 0.00 0.00 0.00 0.00 0.00 0.00 0.00 0.00 0.00 0.00 0.01 0.01 0.01 0.00 0.00 0.00 0.00 0.01 0.01 0.01 0.01 0.01 0.01 0.01 0.00 0.00 0.00 0.01 0.01 0.01 0.01 0.01 0.01
0.01 0.01 0.01 0.01 0.01 0.01 0.01 0.01 0.01 0.00 0.00 0.00 0.00 0.00 0.00 0.00 0.00 0.00 0.00 0.00 0.00 0.00 0.00 0.00 0.00 0.00 0.00 0.00 0.00 0.00 0.00 0.00 0.00 0.00 0.01 0.01 0.01 0.01 0.01 0.01 0.01 0.01 0.01
0.01 0.01 0.00 0.00 0.00 0.00 0.01 0.00 0.00 0.00 0.00 0.00 0.00 0.00 0.00 0.00 0.00 0.00 0.00 0.00 0.00 0.00 0.00 0.00 0.00 0.00 0.01 0.00 0.00 0.00 0.00 0.00 0.00 0.00 0.01 0.01 0.01 0.00 0.01 0.01 0.01 0.01 0.01
0.01 0.01 0.00 0.00 0.00 0.00 0.00 0.00 0.00 0.00 0.00 0.00 0.00 0.00 0.00 0.00 0.00 0.00 0.00 0.00 0.00 0.00 0.00 0.00 0.00 0.00 0.00 0.00 0.00 0.00 0.00 0.00 0.00 0.00 0.00 0.00 0.01 0.01 0.01 0.01 0.01 0.01 0.00
0.00 0.00 0.00 0.00 0.00 0.00 0.00 0.00 0.00 0.00 0.00 0.00 0.00 0.00 0.00 0.00 0.00 0.00 0.00 0.00 0.00 0.00 0.00 0.00 0.00 0.00 0.00 0.00 0.00 0.00 0.00 0.00 0.00 0.00 0.00 0.00 0.00 0.01 0.01 0.01 0.00 0.00 0.00
0.00 0.00 0.00 0.00 0.00 0.00 0.00 0.00 0.00 0.00 0.00 0.00 0.00 0.00 0.00 0.00 0.00 0.00 0.00 0.00 0.00 0.00 0.00 0.00 0.00 0.00 0.00 0.00 0.00 0.00 0.00 0.00 0.00 0.00 0.00 0.00 0.00 0.01 0.01 0.01 0.01 0.01 0.01
0.00 0.00 0.00 0.00 0.00 0.00 0.00 0.00 0.00 0.00 0.00 0.00 0.00 0.00 0.00 0.00 0.00 0.00 0.00 0.00 0.00 0.00 0.00 0.00 0.00 0.00 0.00 0.00 0.00 0.00 0.00 0.00 0.00 0.00 0.00 0.00 0.00 0.00 0.00 0.00 0.01 0.01 0.01
0.00 0.00 0.00 0.00 0.00 0.00 0.00 0.00 0.00 0.00 0.00 0.00 0.00 0.00 0.00 0.00 0.00 0.00 0.00 0.00 0.00 0.00 0.00 0.00 0.00 0.00 0.00 0.00 0.00 0.00 0.00 0.00 0.00 0.00 0.00 0.00 0.00 0.00 0.00 0.00 0.00 0.00 0.00
0.00 0.00 0.00 0.00 0.00 0.00 0.00 0.00 0.00 0.00 0.00 0.00 0.00 0.00 0.00 0.00 0.00 0.00 0.00 0.00 0.00 0.00 0.00 0.00 0.00 0.00 0.00 0.00 0.00 0.00 0.00 0.00 0.00 0.00 0.00 0.00 0.00 0.00 0.00 0.00 0.00 0.00 0.00
0.00 0.00 0.00 0.00 0.00 0.00 0.00 0.00 0.00 0.00 0.00 0.00 0.00 0.00 0.00 0.00 0.00 0.00 0.00 0.00 0.00 0.00 0.00 0.00 0.00 0.00 0.00 0.00 0.00 0.00 0.00 0.00 0.00 0.00 0.00 0.00 0.00 0.00 0.00 0.00 0.00 0.00 0.00
0.00 0.00 0.00 0.00 0.00 0.00 0.00 0.00 0.00 0.00 0.00 0.00 0.00 0.00 0.00 0.00 0.00 0.00 0.00 0.00 0.00 0.00 0.00 0.00 0.00 0.00 0.00 0.00 0.00 0.00 0.00 0.00 0.00 0.00 0.00 0.00 0.00 0.00 0.00 0.00 0.00 0.00 0.00
0.00 0.00 0.00 0.00 0.00 0.00 0.00 0.00 0.00 0.00 0.00 0.00 0.00 0.00 0.00 0.00 0.00 0.00 0.00 0.00 0.00 0.00 0.00 0.00 0.00 0.00 0.01 0.01 0.00 0.00 0.00 0.00 0.00 0.01 0.00 0.00 0.00 0.01 0.01 0.00 0.00 0.00 0.00
MSLP
1016.47 1016.61 1016.73 1016.86 1017.00 1017.17 1017.35 1017.52 1017.67 1017.77 1017.81 1017.79 1017.72 1017.63 1017.54 1017.47 1017.42 1017.39 1017.39 1017.39 1017.40 1017.40 1017.42 1017.44 1017.49 1017.57 1017.69 1017.84 1018.00 1018.16 1018.32 1018.47 1018.60 1018.73 1018.87 1019.02 1019.19 1019.37 1019.54 1019.70 1019.82 1019.90 1019.94
1016.24 1016.36 1016.49 1016.64 1016.82 1017.04 1017.27 1017.49 1017.68 1017.81 1017.88 1017.89 1017.85 1017.78 1017.71 1017.64 1017.58 1017.55 1017.53 1017.51 1017.50 1017.48 1017.47 1017.47 1017.49 1017.54 1017.62 1017.71 1017.83 1017.94 1018.05 1018.15 1018.25 1018.35 1018.47 1018.61 1018.76 1018.93 1019.09 1019.23 1019.33 1019.40 1019.44
1016.11 1016.21 1016.33 1016.50 1016.72 1016.98 1017.26 1017.53 1017.77 1017.95 1018.07 1018.11 1018.11 1018.07 1018.01 1017.95 1017.89 1017.84 1017.80 1017.75 1017.70 1017.64 1017.59 1017.55 1017.54 1017.55 1017.58 1017.64 1017.71 1017.77 1017.84 1017.90 1017.97 1018.04 1018.13 1018.24 1018.37 1018.51 1018.64 1018.75 1018.83 1018.88 1018.91
1016.14 1016.20 1016.32 1016.49 1016.73 1017.02 1017.34 1017.65 1017.93 1018.15 1018.31 1018.40 1018.43 1018.42 1018.39 1018.34 1018.28 1018.22 1018.15 1018.06 1017.96 1017.86 1017.77 1017.69 1017.63 1017.60 1017.61 1017.63 1017.66 1017.70 1017.74 1017.78 1017.82 1017.86 1017.93 1018.00 1018.10 1018.19 1018.28 1018.35 1018.39 1018.41 1018.41
1016.36 1016.39 1016.48 1016.64 1016.87 1017.17 1017.49 1017.82 1018.13 1018.38 1018.56 1018.69 1018.76 1018.79 1018.79 1018.76 1018.71 1018.63 1018.54 1018.42 1018.28 1018.13 1017.99 1017.87 1017.78 1017.72 1017.70 1017.71 1017.73 1017.76 1017.79 1017.82 1017.85 1017.87 1017.91 1017.95 1018.00 1018.04 1018.08 1018.09 1018.08 1018.05 1018.01
1016.78 1016.78 1016.83 1016.95 1017.16 1017.42 1017.73 1018.05 1018.34 1018.60 1018.81 1018.97 1019.07 1019.14 1019.17 1019.17 1019.13 1019.05 1018.94 1018.79 1018.62 1018.44 1018.27 1018.11 1018.00 1017.93 1017.90 1017.91 1017.94 1017.97 1018.01 1018.05 1018.07 1018.09 1018.10 1018.11 1018.11 1018.10 1018.07 1018.02 1017.95 1017.86 1017.77
1017.39 1017.35 1017.36 1017.43 1017.58 1017.79 1018.05 1018.32 1018.59 1018.83 1019.04 1019.21 1019.34 1019.45 1019.52 1019.55 1019.54 1019.48 1019.36 1019.21 1019.02 1018.81 1018.61 1018.44 1018.31 1018.24 1018.21 1018.23 1018.27 1018.33 1018.39 1018.43 1018.46 1018.47 1018.46 1018.43 1018.39 1018.33 1018.24 1018.13 1018.00 1017.85 1017.70
1018.14 1018.08 1018.04 1018.06 1018.14 1018.28 1018.46 1018.67 1018.88 1019.09 1019.28 1019.46 1019.61 1019.75 1019.86 1019.93 1019.96 1019.93 1019.83 1019.68 1019.49 1019.28 1019.07 1018.88 1018.75 1018.67 1018.64 1018.67 1018.72 1018.79 1018.86 1018.91 1018.94 1018.94 1018.91 1018.86 1018.78 1018.67 1018.54 1018.38 1018.19 1018.00 1017.80
1018.99 1018.91 1018.84 1018.80 1018.82 1018.88 1018.98 1019.11 1019.26 1019.42 1019.58 1019.75 1019.93 1020.10 1020.25 1020.37 1020.44 1020.45 1020.39 1020.26 1020.08 1019.87 1019.66 1019.47 1019.32 1019.23 1019.19 1019.20 1019.25 1019.31 1019.37 1019.41 1019.43 1019.41 1019.36 1019.27 1019.16 1019.02 1018.86 1018.67 1018.46 1018.24 1018.00
1019.88 1019.80 1019.71 1019.63 1019.59 1019.58 1019.61 1019.66 1019.74 1019.86 1019.99 1020.16 1020.35 1020.54 1020.74 1020.91 1021.03 1021.08 1021.06 1020.96 1020.80 1020.60 1020.39 1020.18 1020.01 1019.89 1019.82 1019.80 1019.80 1019.82 1019.84 1019.84 1019.82 1019.76 1019.68 1019.57 1019.43 1019.28 1019.10 1018.91 1018.70 1018.47 1018.24
1020.75 1020.69 1020.60 1020.51 1020.43 1020.37 1020.33 1020.33 1020.36 1020.42 1020.53 1020.69 1020.88 1021.10 1021.33 1021.55 1021.71 1021.82 1021.84 1021.78 1021.64 1021.45 1021.23 1021.01 1020.80 1020.63 1020.50 1020.40 1020.33 1020.27 1020.21 1020.13 1020.05 1019.94 1019.81 1019.67 1019.52 1019.35 1019.18 1019.01 1018.82 1018.62 1018.41
1021.56 1021.53 1021.47 1021.38 1021.28 1021.20 1021.12 1021.08 1021.06 1021.09 1021.18 1021.32 1021.52 1021.76 1022.02 1022.27 1022.48 1022.62 1022.68 1022.66 1022.54 1022.36 1022.14 1021.88 1021.63 1021.39 1021.17 1020.97 1020.79 1020.62 1020.45 1020.28 1020.10 1019.92 1019.74 1019.56 1019.39 1019.22 1019.07 1018.92 1018.77 1018.61 1018.44
1022.28 1022.30 1022.27 1022.20 1022.12 1022.03 1021.93 1021.86 1021.82 1021.82 1021.89 1022.02 1022.21 1022.46 1022.74 1023.01 1023.25 1023.43 1023.53 1023.53 1023.44 1023.27 1023.03 1022.74 1022.43 1022.11 1021.80 1021.48 1021.18 1020.88 1020.59 1020.30 1020.02 1019.75 1019.50 1019.27 1019.07 1018.90 1018.76 1018.63 1018.52 1018.42 1018.30
1022.93 1022.99 1022.99 1022.96 1022.90 1022.81 1022.71 1022.62 1022.56 1022.55 1022.59 1022.71 1022.89 1023.13 1023.41 1023.70 1023.96 1024.16 1024.29 1024.31 1024.24 1024.08 1023.83 1023.52 1023.15 1022.76 1022.35 1021.93 1021.50 1021.07 1020.66 1020.25 1019.86 1019.51 1019.18 1018.90 1018.66 1018.47 1018.32 1018.20 1018.12 1018.04 1017.97
1023.49 1023.59 1023.64 1023.64 1023.60 1023.52 1023.43 1023.34 1023.26 1023.22 1023.24 1023.33 1023.49 1023.71 1023.98 1024.26 1024.53 1024.74 1024.89 1024.94 1024.88 1024.73 1024.48 1024.14 1023.74 1023.29 1022.80 1022.29 1021.76 1021.23 1020.71 1020.20 1019.72 1019.27 1018.88 1018.53 1018.24 1018.01 1017.83 1017.70 1017.61 1017.54 1017.50
1024.01 1024.14 1024.21 1024.24 1024.22 1024.17 1024.08 1023.97 1023.88 1023.81 1023.79 1023.85 1023.97 1024.16 1024.40 1024.67 1024.92 1025.14 1025.29 1025.35 1025.31 1025.17 1024.92 1024.58 1024.17 1023.68 1023.15 1022.58 1021.98 1021.38 1020.78 1020.20 1019.65 1019.13 1018.67 1018.26 1017.90 1017.61 1017.37 1017.20 1017.07 1016.98 1016.92
1024.50 1024.64 1024.74 1024.80 1024.80 1024.75 1024.66 1024.54 1024.42 1024.31 1024.26 1024.26 1024.34 1024.48 1024.68 1024.91 1025.14 1025.34 1025.48 1025.55 1025.51 1025.38 1025.15 1024.82 1024.41 1023.92 1023.37 1022.78 1022.16 1021.53 1020.90 1020.28 1019.69 1019.12 1018.60 1018.13 1017.70 1017.33 1017.02 1016.76 1016.56 1016.42 1016.32
1024.98 1025.14 1025.25 1025.32 1025.34 1025.29 1025.19 1025.05 1024.90 1024.76 1024.65 1024.60 1024.62 1024.71 1024.85 1025.03 1025.21 1025.38 1025.50 1025.56 1025.52 1025.40 1025.18 1024.87 1024.47 1024.00 1023.47 1022.90 1022.30 1021.68 1021.05 1020.43 1019.82 1019.23 1018.67 1018.14 1017.65 1017.19 1016.79 1016.43 1016.14 1015.91 1015.74
1025.44 1025.61 1025.74 1025.83 1025.85 1025.80 1025.69 1025.53 1025.35 1025.16 1025.00 1024.89 1024.85 1024.87 1024.94 1025.06 1025.19 1025.31 1025.40 1025.43 1025.38 1025.25 1025.04 1024.74 1024.37 1023.94 1023.45 1022.92 1022.36 1021.78 1021.19 1020.59 1020.00 1019.41 1018.83 1018.26 1017.70 1017.17 1016.67 1016.21 1015.81 1015.47 1015.22
1025.86 1026.04 1026.19 1026.29 1026.32 1026.28 1026.16 1025.98 1025.76 1025.53 1025.32 1025.16 1025.05 1025.00 1025.01 1025.05 1025.12 1025.18 1025.21 1025.20 1025.12 1024.98 1024.76 1024.48 1024.13 1023.74 1023.29 1022.82 1022.32 1021.80 1021.26 1020.72 1020.16 1019.59 1019.01 1018.41 1017.81 1017.21 1016.63 1016.07 1015.57 1015.14 1014.79
1026.20 1026.40 1026.57 1026.69 1026.73 1026.69 1026.57 1026.37 1026.13 1025.87 1025.61 1025.39 1025.23 1025.11 1025.05 1025.03 1025.02 1025.01 1024.98 1024.91 1024.79 1024.62 1024.39 1024.11 1023.78 1023.41 1023.02 1022.60 1022.16 1021.71 1021.24 1020.75 1020.24 1019.70 1019.13 1018.54 1017.92 1017.27 1016.63 1016.00 1015.42 1014.89 1014.46
1026.44 1026.65 1026.84 1026.98 1027.04 1027.00 1026.88 1026.68 1026.42 1026.14 1025.85 1025.59 1025.38 1025.21 1025.08 1024.98 1024.91 1024.82 1024.72 1024.59 1024.42 1024.20 1023.95 1023.66 1023.34 1022.99 1022.63 1022.26 1021.88 1021.49 1021.08 1020.65 1020.19 1019.70 1019.17 1018.59 1017.97 1017.32 1016.65 1015.97 1015.33 1014.74 1014.22
1026.55 1026.79 1027.00 1027.15 1027.22 1027.20 1027.08 1026.88 1026.62 1026.32 1026.01 1025.73 1025.47 1025.26 1025.07 1024.92 1024.77 1024.62 1024.45 1024.25 1024.02 1023.76 1023.47 1023.16 1022.84 1022.51 1022.17 1021.84 1021.50 1021.16 1020.81 1020.43 1020.03 1019.59 1019.10 1018.55 1017.96 1017.33 1016.66 1015.97 1015.30 1014.67 1014.09
1026.57 1026.82 1027.04 1027.20 1027.28 1027.27 1027.15 1026.96 1026.70 1026.39 1026.08 1025.78 1025.50 1025.25 1025.03 1024.82 1024.61 1024.39 1024.16 1023.90 1023.61 1023.30 1022.98 1022.65 1022.32 1021.99 1021.68 1021.37 1021.06 1020.76 1020.44 1020.11 1019.76 1019.36 1018.92 1018.43 1017.89 1017.30 1016.66 1016.00 1015.33 1014.68 1014.07
1026.53 1026.78 1027.01 1027.17 1027.25 1027.24 1027.13 1026.94 1026.68 1026.38 1026.07 1025.76 1025.47 1025.20 1024.94 1024.69 1024.43 1024.16 1023.87 1023.56 1023.22 1022.88 1022.53 1022.18 1021.83 1021.51 1021.20 1020.90 1020.61 1020.33 1020.04 1019.74 1019.42 1019.07 1018.68 1018.25 1017.77 1017.24 1016.66 1016.05 1015.41 1014.77 1014.15
1026.50 1026.75 1026.96 1027.11 1027.19 1027.17 1027.05 1026.86 1026.61 1026.32 1026.01 1025.70 1025.41 1025.12 1024.83 1024.55 1024.26 1023.95 1023.61 1023.26 1022.89 1022.51 1022.14 1021.77 1021.42 1021.09 1020.78 1020.48 1020.20 1019.92 1019.64 1019.36 1019.06 1018.75 1018.40 1018.03 1017.61 1017.16 1016.65 1016.11 1015.53 1014.93 1014.32
Thickness
5736 5736 5735 5734 5733 5732 5732 5731 5730 5729 5728 5727 5726 5725 5724 5723 5721 5720 5719 5717 5715 5713 5711 5708 5706 5704 5702 5700 5698 5696 5695 5693 5691 5689 5688 5686 5685 5684 5683 5682 5681 5680 5679
5735 5733 5732 5731 5730 5730 5729 5729 5727 5725 5724 5723 5721 5720 5719 5718 5716 5715 5713 5711 5710 5708 5706 5703 5700 5699 5698 5696 5694 5691 5690 5688 5687 5685 5683 5682 5681 5679 5678 5677 5676 5675 5674
5732 5730 5729 5727 5726 5726 5725 5724 5722 5721 5719 5718 5716 5715 5713 5712 5710 5708 5706 5705 5703 5702 5699 5697 5695 5694 5692 5690 5688 5686 5684 5682 5681 5679 5677 5676 5674 5673 5672 5671 5670 5669 5669
5728 5726 5725 5724 5723 5721 5721 5719 5717 5715 5713 5711 5710 5709 5707 5705 5704 5701 5699 5697 5696 5694 5692 5691 5689 5688 5686 5684 5681 5679 5677 5675 5673 5672 5670 5668 5667 5665 5664 5663 5662 5661 5661
5723 5721 5720 5718 5717 5716 5715 5714 5711 5709 5705 5703 5703 5701 5699 5698 5697 5694 5692 5690 5688 5687 5685 5684 5682 5680 5679 5677 5674 5671 5669 5667 5664 5663 5661 5660 5658 5656 5655 5654 5653 5652 5652
5716 5715 5713 5712 5711 5709 5707 5705 5703 5701 5698 5696 5696 5693 5691 5690 5688 5686 5684 5682 5680 5678 5677 5675 5674 5671 5669 5667 5665 5662 5660 5658 5655 5653 5651 5649 5647 5646 5644 5643 5642 5641 5641
5709 5707 5705 5704 5703 5701 5698 5697 5695 5693 5690 5689 5686 5682 5681 5680 5679 5676 5674 5672 5670 5669 5667 5666 5664 5661 5659 5657 5654 5652 5649 5646 5644 5641 5639 5637 5635 5633 5632 5630 5629 5628 5628
5698 5697 5697 5695 5694 5691 5688 5688 5687 5684 5681 5680 5677 5673 5669 5667 5667 5666 5664 5661 5659 5658 5656 5655 5653 5651 5649 5645 5643 5640 5637 5634 5631 5628 5626 5623 5621 5619 5618 5617 5616 5615 5614
5688 5687 5686 5684 5683 5682 5678 5677 5677 5675 5672 5670 5668 5665 5660 5655 5653 5653 5652 5649 5647 5646 5644 5643 5641 5638 5636 5633 5630 5627 5624 5620 5617 5614 5612 5609 5607 5605 5603 5602 5601 5600 5600
5677 5676 5675 5674 5673 5670 5668 5666 5665 5665 5663 5659 5658 5655 5652 5649 5644 5641 5639 5637 5635 5632 5630 5629 5627 5624 5622 5618 5615 5612 5608 5605 5602 5599 5596 5594 5592 5590 5588 5586 5585 5584 5584
5665 5664 5663 5662 5660 5658 5656 5655 5654 5652 5650 5647 5645 5643 5640 5636 5633 5630 5624 5621 5620 5619 5617 5615 5612 5610 5607 5603 5600 5596 5592 5589 5586 5583 5580 5577 5575 5573 5571 5570 5569 5568 5567
5652 5652 5651 5649 5647 5646 5644 5641 5640 5638 5636 5634 5632 5629 5625 5621 5617 5615 5610 5606 5604 5603 5602 5600 5597 5594 5591 5588 5584 5580 5577 5573 5570 5567 5563 5561 5558 5556 5554 5553 5551 5550 5550
5640 5638 5638 5636 5635 5633 5631 5629 5627 5624 5622 5620 5617 5614 5610 5606 5604 5600 5596 5591 5588 5586 5586 5584 5581 5578 5575 5572 5568 5565 5561 5557 5554 5550 5547 5545 5542 5540 5538 5536 5534 5532 5531
5628 5626 5625 5623 5622 5620 5617 5615 5613 5610 5608 5605 5602 5599 5596 5592 5590 5586 5582 5577 5572 5568 5567 5566 5565 5563 5560 5557 5553 5549 5545 5542 5539 5535 5532 5530 5527 5525 5522 5520 5518 5515 5513
5616 5614 5612 5610 5608 5606 5604 5601 5598 5595 5593 5590 5587 5584 5581 5577 5575 5572 5568 5564 5558 5551 5546 5547 5546 5547 5544 5541 5538 5535 5531 5528 5525 5522 5520 5516 5513 5511 5508 5505 5503 5500 5498
5603 5601 5599 5596 5594 5591 5589 5586 5583 5581 5579 5576 5573 5570 5566 5563 5560 5557 5553 5549 5544 5538 5531 5530 5530 5530 5529 5526 5524 5521 5518 5515 5513 5510 5508 5505 5502 5499 5496 5494 5491 5489 5486
5590 5587 5584 5581 5578 5576 5574 5571 5568 5566 5564 5561 5558 5555 5552 5548 5545 5541 5538 5534 5529 5524 5518 5516 5516 5516 5515 5513 5511 5508 5506 5503 5500 5497 5496 5493 5491 5488 5486 5483 5481 5478 5476
5576 5572 5569 5567 5564 5561 5559 5557 5554 5551 5549 5547 5544 5541 5538 5535 5531 5527 5523 5519 5515 5511 5506 5503 5502 5502 5502 5500 5498 5496 5493 5491 5488 5486 5484 5483 5480 5478 5476 5474 5471 5469 5466
5561 5558 5555 5551 5549 5547 5545 5543 5540 5538 5536 5534 5531 5528 5525 5522 5518 5514 5510 5506 5502 5500 5495 5491 5489 5489 5489 5488 5486 5484 5482 5480 5478 5477 5475 5473 5471 5470 5468 5466 5464 5462 5459
5547 5544 5541 5538 5535 5533 5531 5529 5527 5525 5523 5521 5519 5517 5515 5512 5508 5504 5500 5496 5493 5489 5485 5482 5480 5479 5478 5477 5475 5472 5471 5470 5469 5469 5467 5465 5464 5462 5461 5460 5458 5456 5453
5534 5531 5528 5525 5522 5521 5519 5517 5515 5514 5511 5510 5508 5506 5505 5502 5499 5496 5493 5488 5485 5480 5477 5474 5472 5470 5469 5467 5465 5463 5461 5460 5461 5461 5459 5459 5458 5457 5456 5454 5452 5451 5448
5522 5519 5515 5513 5511 5509 5508 5507 5505 5502 5501 5499 5497 5496 5495 5493 5490 5488 5486 5483 5480 5476 5472 5469 5466 5464 5463 5462 5460 5458 5454 5451 5451 5455 5452 5453 5454 5451 5451 5450 5448 5446 5443
5510 5507 5504 5502 5500 5498 5497 5496 5495 5493 5491 5489 5488 5486 5486 5485 5482 5480 5479 5478 5476 5474 5472 5467 5464 5462 5461 5461 5458 5455 5453 5449 5447 5451 5448 5447 5449 5447 5448 5447 5445 5443 5440
5500 5498 5495 5493 5490 5489 5488 5487 5485 5484 5482 5482 5481 5480 5478 5478 5477 5475 5473 5472 5472 5472 5470 5468 5465 5464 5464 5462 5459 5455 5452 5449 5448 5450 5447 5443 5445 5444 5446 5444 5443 5440 5437
5492 5489 5487 5484 5482 5481 5480 5478 5476 5475 5474 5474 5474 5474 5474 5473 5473 5471 5468 5467 5468 5469 5470 5468 5467 5466 5466 5465 5461 5456 5452 5448 5446 5447 5447 5442 5441 5440 5441 5441 5440 5438 5435
5485 5482 5479 5477 5475 5473 5472 5471 5469 5467 5466 5467 5468 5469 5470 5470 5469 5468 5465 5463 5462 5464 5465 5466 5466 5467 5466 5465 5464 5459 5454 5449 5445 5444 5445 5441 5439 5437 5436 5437 5437 5436 5434